Simultaneous Nadir Overpasses (SNOs) Predictions

Prediction of SNOs over PacNW region [( 10.00, 139.50) to ( 22.70, 165.60)] between AQUA and NPP Satellites:

Table of predicted SNOs over PacNW region for the next 30.0 days since TLE Epoch: 9/7/2013
Index Date (AQUA) Time (AQUA) AQUA Lat,Lon Date (NPP) Time (NPP) NPP Lat,Lon Distance(km) Time Diff (sec)
1 09/10/2013 15:59:24 22.59, 147.46 09/10/2013 16:02:28 23.22, 144.51 310.10 184
2 09/18/2013 15:10:02 22.63, 159.80 09/18/2013 15:11:51 23.20, 157.18 275.37 109
3 09/21/2013 03:31:54 22.68, 147.47 09/21/2013 03:28:24 23.53, 145.46 225.86 210
4 09/26/2013 15:59:31 22.62, 147.43 09/26/2013 16:02:43 23.25, 144.50 307.36 192
5 10/04/2013 15:10:02 22.60, 159.79 10/04/2013 15:12:06 23.17, 157.17 275.83 124
